Location: De Greiden
(52.9496°N, 5.9137°E)
Time: 14:56:29
(UTC+00:00)

Daily predictions for brighter satellites

Satellite Brightness Start Highest point End
(mag) Time Altitude Azimuth Time Altitude Azimuth Time Altitude Azimuth
Meteor 2-3 Rocket 4.3 17:27:33 10° SSW 17:33:06 63° WNW 17:38:47 10° N
Cosmos 2227 Rocket 4.0 17:30:16 10° NNW 17:33:35 16° NNE 17:36:54 10° NE
Cosmos 1805 Rocket 3.5 17:29:20 10° S 17:33:40 72° E 17:38:02 10° NNE
Cosmos 1943 Rocket 2.8 17:29:34 10° S 17:34:37 36° ESE 17:39:39 10° NE
Okean-O 2.9 17:31:37 10° S 17:36:03 76° WSW 17:40:31 10° NNW
COSMO-SKYMED 1 2.8 17:32:22 10° NNE 17:36:38 51° E 17:40:52 10° S
Cosmos 1862 Rocket 4.0 17:32:33 10° N 17:36:41 40° ENE 17:40:46 10° SE
Cosmos 1707 Rocket 3.6 17:34:49 10° N 17:39:18 84° ENE 17:43:47 10° SSE
STARLINK-80 3.4 17:37:46 10° W 17:41:37 88° S 17:45:28 10° E
Cosmos 1939 Rocket 3.1 17:39:14 10° SSE 17:43:16 53° ENE 17:47:19 10° N
Cosmos 2100 Rocket 4.3 17:36:56 10° SSW 17:43:16 76° W 17:49:36 10° N
Cosmos 1459 Rocket 4.1 17:37:35 10° SSW 17:43:38 80° WNW 17:49:46 10° N
NOSS 3-1 (C) 3.7 17:38:22 10° SSW 17:43:40 47° ESE 17:49:49 10° NE
CZ-4 R/B 1.4 17:42:03 10° SSE 17:46:15 83° ENE 17:50:25 10° NNW
CZ-2C R/B 4.3 17:42:02 10° ESE 17:46:39 25° ENE 17:51:11 10° N
Cosmos 1340 3.8 17:46:19 10° SE 17:49:21 23° E 17:52:23 10° NE
STARLINK-24 4.1 17:48:09 10° SW 17:51:59 45° SSE 17:55:34 12° E
Cosmos 405 4.5 17:50:17 10° NNE 17:52:51 18° ENE 17:55:25 10° ESE
Okean 1-7 4.2 17:50:52 10° NNE 17:54:19 23° ENE 17:57:47 10° ESE
Cosmos 921 Rocket 3.3 17:50:09 10° S 17:54:30 49° ESE 17:58:53 10° NNE
STARLINK-1023 3.9 17:53:31 10° SW 17:56:24 33° SSE 17:58:46 14° E
Cosmos 292 Rocket 4.2 17:52:48 10° SW 17:57:35 65° WNW 18:02:22 10° NNE
Cosmos 44 Rocket 3.9 17:53:16 10° NW 17:57:42 37° NNE 18:01:44 12° E
STARLINK-58 3.6 17:54:20 10° SW 17:57:48 50° SSE 18:00:43 14° E
COSMOS 2487 3.3 17:55:27 10° N 17:58:33 29° NE 18:01:37 10° ESE
ADEOS Rocket 3.8 17:51:29 10° NNE 17:58:56 48° E 18:06:20 10° S
STARLINK-62 3.6 17:56:00 10° SW 17:59:28 52° SSE 18:02:20 14° E
STARLINK-34 3.5 17:57:37 10° SW 18:01:05 53° SSE 18:03:54 15° E
Orbus 7S? 4.3 17:52:51 10° SW 18:01:16 62° SSE 18:04:40 13° ENE
STARLINK-81 4.0 17:57:24 10° SW 18:01:17 47° SSE 18:04:30 14° E
FREGAT/IRIS 4.0 18:01:43 15° E 18:02:27 17° ENE 18:04:19 10° NNE
Cosmos 1777 Rocket 4.4 17:57:31 10° NNW 18:02:48 69° WSW 18:08:01 10° SSE
STARLINK-54 3.9 17:59:13 10° SW 18:03:07 50° SSE 18:06:18 15° E
Cosmos 1725 Rocket 4.0 17:58:22 10° S 18:04:33 86° E 18:10:49 10° NNE
STARLINK-77 3.9 18:00:43 10° SW 18:04:36 49° SSE 18:07:42 15° E
SJ 16-02 2.3 18:00:54 10° N 18:04:46 28° NE 18:08:06 13° ESE
STARLINK-25 3.9 18:02:20 10° SW 18:06:14 50° SSE 18:09:17 16° E
Cosmos 1633 3.8 18:03:25 10° SSW 18:06:53 44° WNW 18:10:24 10° N
Cosmos 1898 Rocket 4.1 18:02:07 10° NNW 18:06:57 37° NE 18:11:45 10° ESE
STARLINK-33 3.1 18:04:45 10° WSW 18:08:00 67° SSE 18:10:20 18° E
STARLINK-71 3.8 18:04:10 10° SW 18:08:05 53° SSE 18:11:06 16° E
STARLINK-79 3.9 18:05:37 10° SW 18:09:32 52° SSE 18:12:27 17° E
STARLINK-66 3.0 18:06:45 10° WSW 18:10:01 69° SSE 18:12:16 18° E
STARLINK-55 3.0 18:06:58 10° WSW 18:10:13 69° SSE 18:12:28 19° E
IRS-1A Rocket 4.4 18:05:22 10° SE 18:10:39 50° ENE 18:15:59 10° N
STARLINK-78 3.8 18:07:17 10° SW 18:11:13 53° SSE 18:14:05 17° E
Aureole 2 Rocket 2.0 18:09:13 10° S 18:11:46 46° ESE 18:14:20 10° NE
STARLINK-28 3.0 18:08:36 10° WSW 18:11:52 72° SSE 18:14:03 19° E
STARLINK-1007 3.6 18:08:58 10° SW 18:12:01 41° SSE 18:13:54 19° E
Cosmos 2061 Rocket 4.4 18:05:37 10° SSW 18:12:01 71° WNW 18:18:24 10° N
STARLINK-57 3.8 18:09:01 10° SW 18:12:57 55° SSE 18:15:46 18° E
HJ-1C 3.5 18:10:19 10° SSE 18:13:32 51° ENE 18:16:46 10° N
Cosmos 2297 4.2 18:07:56 10° SW 18:13:33 62° NW 18:19:10 10° NNE
STARLINK-49 3.8 18:10:32 10° SW 18:14:28 54° SSE 18:17:13 18° E
USA 186 3.1 18:15:03 16° NE 18:15:03 16° NE 18:16:17 10° NNE
Cosmos 1812 3.4 18:11:30 10° NNW 18:15:20 60° W 18:19:08 10° S
STARLINK-27 3.8 18:12:12 10° SW 18:16:08 55° SSE 18:18:50 19° E
NOSS 2-3 (E) 4.4 18:13:10 10° S 18:17:10 35° ESE 18:21:11 13° ENE
STARLINK-74 3.8 18:13:51 10° SW 18:17:48 56° SSE 18:20:25 20° E
Cosmos 2263 Rocket 4.4 18:16:25 10° NNW 18:18:47 12° N 18:21:09 10° NNE
SJ-6B 3.7 18:16:54 17° ESE 18:18:52 26° ENE 18:22:05 10° N
STARLINK-39 3.7 18:15:29 10° SW 18:19:26 57° SSE 18:22:00 20° E
YAOGAN 1 3.2 18:15:21 10° S 18:19:38 61° WSW 18:23:57 10° NNW
Cosmos 2369 Rocket 2.2 18:14:46 10° SSW 18:20:20 61° ESE 18:25:58 10° NE
STARLINK-42 3.0 18:17:31 10° WSW 18:20:45 71° SSE 18:22:34 24° E
Cosmos 2285 Rocket 4.1 18:14:24 10° NNW 18:20:49 88° WSW 18:27:13 10° SSE
STARLINK-31 3.7 18:17:09 10° WSW 18:21:07 58° SSE 18:23:37 21° E
SL-27 R/B 4.4 18:18:49 10° NW 18:21:48 30° WSW 18:24:45 10° SSW
STARLINK-69 3.7 18:18:56 10° WSW 18:22:54 61° SSE 18:25:22 22° E
NOSS 7 (D) 4.0 18:21:29 10° NW 18:24:18 61° NE 18:25:51 25° ESE
STARLINK-21 3.7 18:20:26 10° WSW 18:24:24 60° SSE 18:26:48 22° E
USA 234 3.5 18:19:11 15° E 18:24:36 64° N 18:31:04 10° WNW
Cosmos 1633 Rocket 3.1 18:20:21 10° SSW 18:24:42 82° WNW 18:29:05 10° N
NOSS 3-2 (A) 4.4 18:18:06 10° NW 18:24:42 44° NNE 18:30:13 18° E
SKYMED 2 4.2 18:20:28 10° N 18:24:45 60° WNW 18:29:02 10° SSW
STARLINK-1010 3.3 18:22:17 10° SW 18:25:24 48° SSE 18:26:51 27° E
CZ-2D R/B 3.9 18:22:03 10° S 18:25:54 60° W 18:29:46 10° NNW
STARLINK-45 3.6 18:22:16 10° WSW 18:26:16 64° SSE 18:28:36 23° E
Cosmos 1833 4.3 18:21:27 10° NNW 18:27:16 86° WSW 18:33:00 10° SSE
STARLINK-70 3.6 18:23:50 10° WSW 18:27:50 64° SSE 18:30:06 24° E
Cosmos 1862 4.3 18:24:04 10° SSW 18:27:57 49° WNW 18:31:50 10° N
STARLINK-76 3.6 18:25:23 10° WSW 18:29:22 63° SSE 18:31:34 25° E
Timation 2 Rocket 4.3 18:23:49 10° NNW 18:30:37 59° NE 18:36:34 14° SE
STARLINK-23 3.6 18:27:02 10° WSW 18:31:02 64° SSE 18:33:10 26° E
MONITOR-E 4.3 18:30:56 35° E 18:31:09 36° ENE 18:33:40 10° N
Cosmos 1666 Rocket 4.2 18:27:01 10° SSW 18:31:28 61° WNW 18:35:56 10° N
Cosmos 1933 Rocket 3.6 18:27:44 10° S 18:32:01 52° E 18:36:18 10° NNE
NOSS 2-3 (D) 4.1 18:27:55 10° SSW 18:32:05 42° ESE 18:35:30 18° ENE
STARLINK-32 3.6 18:28:42 10° WSW 18:32:41 65° SSE 18:34:46 26° E
USA 229 DEB 3.6 18:27:29 10° SW 18:34:06 85° SE 18:41:08 10° NE
USA 229 3.6 18:27:36 10° SW 18:34:13 85° SE 18:41:14 10° NE
Cosmos 44 4.3 18:30:06 10° NW 18:34:15 42° WSW 18:38:29 10° SSE
STARLINK-40 3.6 18:30:19 10° WSW 18:34:19 66° SSE 18:36:20 27° E
STARLINK-44 3.6 18:31:58 10° WSW 18:35:58 66° SSE 18:37:56 28° E
STARLINK-37 3.5 18:33:44 10° WSW 18:37:44 69° SSE 18:39:39 29° E
STARLINK-64 3.2 18:34:16 10° WSW 18:37:52 76° SSE 18:39:23 33° E
STARLINK-1029 3.3 18:35:19 10° SW 18:38:22 47° SSE 18:39:11 36° ESE
STARLINK-36 3.6 18:35:17 10° WSW 18:39:16 68° SSE 18:41:07 30° E
STARLINK-75 3.0 18:35:53 10° WSW 18:39:18 81° S 18:40:35 36° E
STARLINK-1016 3.1 18:36:12 10° WSW 18:39:25 57° SSE 18:40:22 38° ESE
STARLINK-1008 3.2 18:36:12 10° WSW 18:39:27 57° SSE 18:40:27 37° E
Cosmos 1346 Rocket 2.7 18:36:51 10° S 18:40:48 65° E 18:44:44 10° NNE
STARLINK-68 3.5 18:37:06 10° WSW 18:41:07 72° SSE 18:42:54 31° E
NOSS 3-1 (A) 3.3 18:35:37 10° SSW 18:41:12 67° SE 18:47:34 11° NE
USA 116 4.1 18:37:45 10° N 18:41:35 70° WNW 18:45:55 10° SSW
STARLINK-22 3.0 18:38:23 10° WSW 18:41:46 77° SSE 18:42:54 39° E
SJ-11-01 4.2 18:37:08 10° SSE 18:41:48 81° ENE 18:46:31 10° NNW
STARLINK-1033 4.4 18:38:15 10° SSW 18:42:00 34° SSE 18:43:07 29° ESE
STARLINK-1025 3.1 18:39:15 10° WSW 18:42:29 59° SSE 18:43:21 41° ESE
STARLINK-63 3.5 18:38:40 10° WSW 18:42:40 71° SSE 18:44:23 32° E
STARLINK-1035 4.3 18:38:45 10° SW 18:42:41 38° SSE 18:44:01 30° ESE
Ariane Rocket 3.0 18:38:00 10° SSE 18:43:07 87° ENE 18:48:16 10° NNW
STARLINK-41 3.0 18:39:52 10° WSW 18:43:14 79° SSE 18:44:18 40° E
STARLINK-61 3.4 18:40:03 10° WSW 18:43:58 84° S 18:45:35 34° E
STARLINK-1017 3.1 18:40:46 10° WSW 18:44:00 59° SSE 18:44:49 43° ESE
STARLINK-35 3.5 18:40:13 10° WSW 18:44:14 71° SSE 18:45:52 34° E
STARLINK-48 3.4 18:40:58 10° W 18:44:53 87° N 18:46:26 35° E
Cosmos 2263 4.2 18:39:47 10° SSW 18:45:31 68° ESE 18:51:15 10° NE
ARGOS 3.2 18:40:16 10° SE 18:45:35 59° ENE 18:50:57 10° N
STARLINK-26 3.1 18:42:20 10° W 18:45:48 87° N 18:46:54 42° E
STARLINK-51 3.5 18:41:53 10° WSW 18:45:53 72° SSE 18:47:29 35° E
STARLINK-30 3.5 18:43:32 10° WSW 18:47:33 73° SSE 18:49:04 36° E
STARLINK-1048 3.0 18:45:24 10° WSW 18:48:39 62° SSE 18:49:18 48° ESE
STARLINK 1040 2.5 18:45:52 10° WSW 18:48:40 65° SSE 18:48:51 63° SE
CENTAUR R/B 3.6 18:42:14 10° NW 18:49:10 43° NNE 18:54:06 22° ENE
STARLINK-72 3.5 18:45:10 10° WSW 18:49:11 73° SSE 18:50:38 37° E
STARLINK-1049 3.0 18:46:57 10° WSW 18:50:13 63° SSE 18:50:48 50° ESE
STARLINK-50 3.5 18:46:49 10° WSW 18:50:50 74° SSE 18:52:14 39° E
STARLINK-1051 3.0 18:48:33 10° WSW 18:51:49 64° SSE 18:52:22 53° ESE
STARLINK-1028 3.0 18:48:33 10° WSW 18:51:49 64° SSE 18:52:22 53° ESE
STARLINK-1024 4.2 18:48:03 10° SW 18:51:54 38° SSE 18:52:41 35° ESE
STARLINK-59 3.5 18:48:34 10° WSW 18:52:35 76° SSE 18:53:56 40° E
STARLINK-1027 4.1 18:49:12 10° SW 18:53:16 44° SSE 18:54:17 37° ESE
Cosmos 2233 Rocket 4.3 18:47:18 10° SSW 18:53:25 68° WNW 18:59:39 10° N
STARLINK-1021 3.0 18:50:11 10° WSW 18:53:27 65° SSE 18:53:57 55° ESE
STARLINK-56 3.5 18:50:07 10° WSW 18:54:08 76° SSE 18:55:24 42° E
STARLINK-1014 3.2 18:51:05 10° WSW 18:54:30 60° SSE 18:55:03 51° ESE
Cosmos 990 Rocket 3.8 18:49:26 10° NNW 18:54:37 76° ENE 18:58:20 19° SSE
STARLINK-1019 3.0 18:51:48 10° WSW 18:55:04 66° SSE 18:55:30 57° ESE
STARLINK-73 3.5 18:51:47 10° WSW 18:55:48 77° SSE 18:57:01 43° E
Cosmos 1092 Rocket 4.4 18:50:00 10° N 18:55:59 41° ENE 18:58:49 27° ESE
Meteor 2-11 Rocket 4.4 18:50:09 10° S 18:56:04 56° E 19:02:01 10° NNE
H-2A R/B 2.1 18:51:07 10° SSE 18:56:31 79° ENE 19:02:00 10° NNW
STARLINK-1012 2.9 18:53:30 10° WSW 18:56:47 67° SSE 18:57:09 60° ESE
STARLINK-38 3.5 18:53:27 10° WSW 18:57:29 77° SSE 18:58:37 45° E
Meteor 1-18 Rocket 4.2 18:52:26 10° NNW 18:58:25 80° ENE 19:04:17 10° SSE
STARLINK-65 3.4 18:55:05 10° WSW 18:59:07 78° SSE 19:00:11 47° E
Okean 3 4.2 18:55:26 10° N 18:58:56 33° ENE 18:58:56 33° ENE
Resurs 1-3 4.1 18:58:56 37° E 18:59:26 39° ENE 19:03:32 10° N
ARGOS Delta rocket 3.7 18:57:38 30° SE 18:59:31 53° ENE 19:03:54 10° N
ATLAS 3B R/B 3.6 18:53:59 10° NW 19:00:01 35° NNE 19:03:34 22° ENE
STARLINK-1026 2.9 18:56:48 10° WSW 19:00:04 69° SSE 19:00:19 65° SE
Cosmos 2297 Rocket 3.0 18:55:41 10° NNW 19:00:50 33° NE 19:02:16 29° ENE
STARLINK-53 3.4 18:56:49 10° WSW 19:00:51 80° SSE 19:01:52 49° E
STARLINK-1013 2.9 18:58:25 10° WSW 19:01:43 70° SSE 19:01:55 67° SE
STARLINK-1032 4.0 18:57:54 10° SW 19:01:49 43° SSE 19:02:16 41° SE
MOS 1 4.2 18:56:32 10° SSE 19:02:13 89° WSW 19:07:55 10° NNW
Cosmos 1937 Rocket 3.4 18:57:21 10° NNW 19:02:39 67° ENE 19:05:15 30° SE
STARLINK-1009 2.9 19:00:04 10° WSW 19:03:22 71° SSE 19:03:31 70° SE
STARLINK-43 3.5 19:00:30 10° W 19:04:11 65° SSW 19:04:52 51° SE
Meteor 1-20 Rocket 4.0 18:58:52 10° S 19:04:19 74° E 19:09:54 10° NNE
STARLINK-1015 2.9 19:01:46 10° WSW 19:05:04 72° SSE 19:05:09 72° SSE
Okean 1 3.2 19:01:56 10° N 19:05:59 86° ENE 19:08:21 24° SSE
NOSS 2-3 (C) 3.7 19:01:40 10° SW 19:06:07 74° SE 19:09:00 27° NE
STARLINK-1011 3.9 19:02:49 10° SW 19:06:46 45° SSE 19:07:02 44° SE
Lacrosse 5 rocket 2.0 19:03:32 10° WNW 19:07:59 53° N 19:09:19 39° ENE
Lacrosse 4 Rocket 3.5 19:05:36 10° W 19:09:10 25° NNW 19:12:49 10° NNE
STARLINK-1036 3.9 19:07:45 10° SW 19:11:44 48° SSE 19:11:49 47° SSE
Cosmos 1470 Rocket 4.4 19:07:30 10° SSW 19:11:46 51° WNW 19:16:05 10° N
Cosmos 1072 Rocket 4.4 19:06:26 10° S 19:12:48 81° E 19:19:08 10° NNE
SL-24 DEB 4.1 19:10:49 23° SSE 19:13:45 68° E 19:18:23 10° N
Resurs 01 Rocket 2.2 19:15:30 39° NE 19:15:30 39° NE 19:19:16 10° N
SL-08 RB Rocket 3.5 19:14:22 38° SSE 19:16:02 74° ENE 19:20:31 10° NNW
STARLINK-1044 3.9 19:12:40 10° SW 19:16:35 50° SSE 19:16:35 50° SSE
Meteor 1-14 Rocket 4.1 19:11:14 10° S 19:16:41 63° E 19:22:12 10° NNE
Cosmos 1943 Rocket 3.0 19:12:49 10° SW 19:18:14 51° NW 19:23:39 10° NNE
Cosmos 1515 4.0 19:15:25 10° N 19:18:30 51° NNE 19:18:30 51° NNE
Cosmos 2227 Rocket 2.8 19:14:04 10° NNW 19:19:21 38° NE 19:20:07 36° ENE
Gbstr 26 Del rocket 4.5 19:16:01 10° SSW 19:18:23 24° S 19:18:23 24° S
STARLINK-80 3.3 19:16:08 10° W 19:19:58 79° SSW 19:20:04 78° S
Genesis I 3.5 19:18:14 10° NW 19:21:45 51° NNE 19:21:45 51° NNE
STARLINK-1031 3.8 19:18:52 10° SW 19:22:31 54° S 19:22:31 54° S
USA 238 DEB 3.9 19:16:34 10° NW 19:23:37 63° NE 19:26:20 39° E
USA 238 3.9 19:16:40 10° NW 19:23:43 63° NE 19:26:24 40° E
Cosmos 1340 4.3 19:21:19 10° SW 19:24:48 35° WNW 19:28:19 10° N
Cosmos 1513 Rocket 4.4 19:19:01 10° S 19:25:07 89° ESE 19:31:21 10° N
CZ-2C R/B 3.4 19:20:12 10° S 19:26:01 77° WSW 19:31:44 10° NNW
STARLINK-1037 3.9 19:22:31 10° SW 19:26:07 52° S 19:26:07 52° S
Cosmos 405 4.1 19:24:22 10° NNW 19:27:45 43° W 19:29:30 24° SSW
STARLINK-24 3.5 19:26:55 10° W 19:30:47 82° WSW 19:30:47 82° WSW
STARLINK-1059 4.0 19:27:31 10° SW 19:30:58 51° SSW 19:30:58 51° SSW
Okean 1-7 3.9 19:28:00 10° NNW 19:32:10 49° W 19:36:19 10° SSW
STARLINK-1023 4.3 19:29:00 10° W 19:31:04 37° WSW 19:31:04 37° WSW
COSMOS 2487 4.5 19:30:37 10° NW 19:33:35 27° WSW 19:35:18 18° SSW
NOSS 3-1 (C) 4.0 19:28:42 10° WSW 19:34:26 56° NNW 19:39:31 18° NE
STARLINK-58 3.9 19:31:29 10° W 19:34:19 53° W 19:34:19 53° W
Meteor 1-19 Rocket 4.5 19:29:51 10° NNW 19:35:41 70° W 19:40:38 14° S
STARLINK-1057 4.2 19:32:28 10° WSW 19:35:45 49° SSW 19:35:45 49° SSW
STARLINK-62 4.0 19:33:10 10° W 19:35:55 51° W 19:35:55 51° W
STARLINK-34 4.1 19:34:49 10° W 19:37:29 48° W 19:37:29 48° W
Cosmos 1627 Rocket 4.4 19:32:25 10° N 19:38:36 59° ENE 19:39:29 54° ESE
SPOT 3 Rocket 3.6 19:36:24 29° S 19:39:05 76° WSW 19:44:21 10° NNW
Cosmos 44 Rocket 3.7 19:34:47 10° NW 19:39:26 57° SW 19:40:28 46° S
Cosmos 372 Rocket 4.0 19:34:31 10° NNW 19:39:45 62° ENE 19:39:50 62° ENE
Meteor 2-4 Rocket 3.7 19:33:50 10° NNW 19:39:46 87° ENE 19:42:12 38° SSE
STARLINK-81 3.8 19:36:15 10° W 19:39:44 66° W 19:39:44 66° W
Cosmos 2298 Rocket 4.0 19:35:20 10° NNW 19:40:40 62° ENE 19:40:46 61° ENE
STARLINK-1034 4.3 19:37:25 10° WSW 19:40:31 46° SW 19:40:31 46° SW
Cosmos 2219 3.1 19:36:19 10° NNW 19:42:05 67° NE 19:42:43 62° E
STARLINK-54 3.9 19:38:06 10° W 19:41:33 63° W 19:41:33 63° W
Cosmos 468 Rocket 3.9 19:36:54 10° SSW 19:42:11 77° ESE 19:44:32 34° NNE
SJ 16-02 2.3 19:39:20 10° NW 19:43:33 45° WSW 19:45:09 31° SSW
STARLINK-77 3.9 19:39:34 10° W 19:42:57 61° W 19:42:57 61° W
Cosmos 1869 Rocket 3.5 19:39:34 10° SSW 19:43:58 80° W 19:48:23 10° N
ADEOS Rocket 4.3 19:37:03 10° N 19:44:29 53° WNW 19:51:56 10° SW
STARLINK-25 4.0 19:41:14 10° W 19:44:32 58° W 19:44:32 58° W
STARLINK-1068 4.5 19:42:22 10° WSW 19:45:17 43° SW 19:45:17 43° SW
STARLINK-71 4.1 19:43:06 10° W 19:46:21 56° W 19:46:21 56° W
MetOp-B 4.4 19:48:15 51° NE 19:48:15 51° NE 19:52:54 10° N
STARLINK-79 4.2 19:44:32 10° W 19:47:41 54° W 19:47:41 54° W
Cosmos 1898 Rocket 4.5 19:44:14 10° NW 19:49:08 44° WSW 19:52:08 21° SSW
STARLINK-78 4.3 19:46:13 10° W 19:49:19 52° W 19:49:19 52° W
Cosmos 1656 Rocket 3.9 19:45:29 10° SW 19:51:00 67° NW 19:56:38 10° NNE
STARLINK-57 4.3 19:47:58 10° W 19:51:01 50° W 19:51:01 50° W
SJ-6B 4.2 19:52:31 29° SW 19:53:26 34° W 19:56:56 10° NNW
STARLINK-49 4.4 19:49:30 10° W 19:52:28 48° W 19:52:28 48° W
STARLINK-27 4.5 19:51:09 10° W 19:54:04 46° W 19:54:04 46° W
Cosmos 489 Rocket 4.5 19:49:11 10° SSW 19:55:32 84° WNW 20:01:55 10° NNE
Nadezhda 4 Rocket 4.5 19:51:48 10° NNW 19:57:58 60° W 20:03:47 12° S
Cosmos 2150 Rocket 4.0 19:53:44 10° NNW 19:58:50 73° NNE 19:58:50 73° NNE
Meteor 1-13 Rocket 4.2 19:57:40 10° NNW 20:03:38 87° WSW 20:04:16 72° S
Cosmos 2369 Rocket 3.7 19:59:32 10° WSW 20:04:43 35° NW 20:09:57 10° NNE
Cosmos 2026 Rocket 3.8 19:58:37 10° N 20:04:53 82° E 20:05:16 77° SE
Cosmos 2263 Rocket 3.9 20:00:50 10° NNW 20:04:48 21° NNE 20:04:48 21° NNE
USA 234 3.1 20:06:31 68° ESE 20:07:28 87° NNE 20:14:03 10° WNW
Cosmos 1763 Rocket 4.3 20:04:06 10° SSW 20:16:32 - NNE 20:07:24 40° SSW
Cosmos 2221 Rocket 4.4 20:07:29 10° NNW 20:11:44 48° W 20:11:44 48° W
CZ-2C R/B 4.1 20:08:47 10° NNE 20:11:10 26° NNE 20:11:10 26° NNE
Cosmos 1125 Rocket 4.2 20:10:52 10° NNW 20:14:49 47° N 20:14:49 47° N
NOSS 3-2 (A) 3.9 20:09:06 10° NW 20:16:23 89° SW 20:17:38 67° SE
NOSS 3-2 (C) 3.8 20:10:17 10° NW 20:17:30 75° NE 20:18:24 68° E
Terra 4.0 20:22:36 16° N 20:22:36 16° N 20:23:48 10° N
BREEZE-M DEB (TANK) 3.8 20:11:32 10° W 20:27:48 63° SSW 20:27:48 63° SSW
NOSS 3-1 (A) 4.3 20:26:44 10° W 20:32:30 47° NNW 20:35:03 33° NNE
H-2A R/B 4.5 20:32:38 10° SW 20:36:34 20° W 20:40:34 10° NW
CENTAUR R/B 3.0 20:33:11 10° NW 20:40:57 80° NE 20:41:17 79° ENE
Cosmos 2297 Rocket 2.9 20:39:39 10° NW 20:44:06 51° WNW 20:44:06 51° WNW
Lacrosse 5 rocket 3.6 20:42:52 10° WNW 20:44:58 27° WNW 20:44:58 27° WNW
Cosmos 1634 Rocket 4.4 20:49:38 58° NNW 20:49:38 58° NNW 20:54:50 10° N
Lacrosse 4 Rocket 4.3 20:47:35 10° NNW 20:49:23 12° N 20:49:35 12° N
Resurs 01 Rocket 3.7 20:53:04 25° WNW 20:53:04 25° WNW 20:55:36 10° NNW
ATLAS 3B R/B 3.0 20:45:09 10° NW 20:50:49 58° N 20:50:49 58° N
Cosmos 2227 Rocket 3.3 20:58:09 10° NW 21:01:58 40° WNW 21:01:58 40° WNW
USA 238 DEB 4.5 21:07:44 10° NW 21:13:47 47° WSW 21:13:47 47° WSW
USA 238 4.5 21:07:50 10° NW 21:13:52 47° WSW 21:13:52 47° WSW
Cosmos 2263 Rocket 4.3 21:44:29 10° NNW 21:46:30 22° NNW 21:46:30 22° NNW
CENTAUR R/B 4.4 22:24:09 10° NW 22:28:29 30° WNW 22:28:29 30° WNW
